Tracking 30415 objects as of 15-May-2025
HD Live streaming from Space Station
objects crossing your sky now

COSMOS 2491 DEB

Track COSMOS 2491 DEB now!
10-day predictions


NORAD ID: 45130
Int'l Code: 2013-076AB
Perigee: 1,241.1 km
Apogee: 1,539.9 km
Inclination: 82.4 °
Period: 113.4 minutes
Semi major axis: 7761 km
RCS: Unknown
Launch date: December 25, 2013
Source: Commonwealth of Independent States (former USSR) (CIS)
Launch site: PLESETSK MISSILE AND SPACE COMPLEX (PKMTR)

Note: This is SATELLITE DEBRIS
Your satellite tracking list
Your tracking list is empty




NASA's NSSDC Master Catalog

Two Line Element Set (TLE):
1 45130U 13076AC  25124.91624955  .00003204  00000-0  15022-1 0  9995
2 45130  82.4399  11.5903 0192484 345.1025  14.4446 12.69644509242835
Source of the keplerian elements: AFSPC